Orbital Elements at Epoch 2459000.5 (2020-May-31.0) TDB
Reference: JPL 21 (heliocentric ecliptic J2000)
Element | Value | Uncertainty (1-sigma) | Units |
e | .2039524868143562 | 5.7584e-08 | |
a | 2.758858447216468 | 1.5029e-08 | au |
q | 2.196182406137876 | 1.6268e-07 | au |
i | 2.853381131021664 | 5.8454e-06 | deg |
node | 323.84430951 | 8.907e-05 | deg |
peri | 45.21462670409409 | 8.9628e-05 | deg |
M | 200.7707268502567 | 1.0195e-05 | deg |
tp | 2459740.808892056872 (2022-Jun-10.30889206) | 5.0574e-05 | TDB |
period | 1673.757568998259 4.58 | 1.3677e-05 3.745e-08 | d yr |
n | .2150849123361751 | 1.7575e-09 | deg/d |
Q | 3.321534488295061 | 1.8094e-08 | au |
|
| | Orbit Determination Parameters
Additional Information
|